When you browse on this site, cookies collect data to enhance your experience and personalize the content and advertising you see.
Visit our Privacy Policy to learn more. By continuing to use the site, you agree to this use of cookies and data.
  • In Österreich
  • Länderverzeichnis
  • Für 7 Tage
  • Wassertemperatur
  • Wetterkarte
  • News
  • Widgets
  • user-avatar
    Anmelden

    Stündliche Wetter La Paz

    Heute, 2 Juni, Dienstag

    Zeit Temperatur Niederschläge Wind Luftdruck Luftfeuchtigkeit
    00:00 +23°C° 0 mm 1 m/S 698 mmHg 96%
    01:00 +23°C° 0 mm 1 m/S 698 mmHg 95%
    02:00 +23°C° 0 mm 1 m/S 697 mmHg 95%
    03:00 +23°C° 0 mm 1 m/S 696 mmHg 95%
    04:00 +23°C° 0.1 mm 1 m/S 697 mmHg 95%
    05:00 +23°C° 0.1 mm 1 m/S 697 mmHg 95%
    06:00 +23°C° 0.1 mm 1 m/S 697 mmHg 95%
    07:00 +24°C° 0.3 mm 1 m/S 697 mmHg 92%
    08:00 +25°C° 0.3 mm 1 m/S 698 mmHg 90%
    09:00 +26°C° 0.3 mm 2 m/S 698 mmHg 88%
    10:00 +26°C° 1.2 mm 2 m/S 698 mmHg 87%
    11:00 +27°C° 1.2 mm 2 m/S 698 mmHg 86%
    12:00 +27°C° 1.2 mm 2 m/S 697 mmHg 85%
    13:00 +27°C° 0.7 mm 3 m/S 697 mmHg 83%
    14:00 +28°C° 0.7 mm 3 m/S 696 mmHg 81%
    15:00 +28°C° 0.7 mm 3 m/S 696 mmHg 78%
    16:00 +27°C° 0.1 mm 2 m/S 696 mmHg 82%
    17:00 +26°C° 0.1 mm 2 m/S 696 mmHg 86%
    18:00 +25°C° 0.1 mm 2 m/S 696 mmHg 89%
    19:00 +24°C° 0 mm 2 m/S 697 mmHg 91%
    20:00 +24°C° 0 mm 2 m/S 697 mmHg 92%
    21:00 +23°C° 0 mm 2 m/S 697 mmHg 93%
    22:00 +23°C° 0 mm 1 m/S 697 mmHg 94%
    23:00 +23°C° 0 mm 1 m/S 697 mmHg 94%

    Morgen, 3 Juni, Mittwoch

    Zeit Temperatur Niederschläge Wind Luftdruck Luftfeuchtigkeit
    00:00 +23°C° 0 mm 1 m/S 697 mmHg 94%
    01:00 +23°C° 0.1 mm 1 m/S 696 mmHg 95%
    02:00 +23°C° 0.1 mm 2 m/S 696 mmHg 95%
    03:00 +23°C° 0.1 mm 2 m/S 695 mmHg 96%
    04:00 +23°C° 0.1 mm 2 m/S 696 mmHg 96%
    05:00 +23°C° 0.1 mm 2 m/S 696 mmHg 95%
    06:00 +23°C° 0.1 mm 2 m/S 696 mmHg 95%
    07:00 +24°C° 0.2 mm 2 m/S 696 mmHg 93%
    08:00 +24°C° 0.2 mm 2 m/S 697 mmHg 92%
    09:00 +24°C° 0.2 mm 3 m/S 697 mmHg 91%
    10:00 +25°C° 0.4 mm 3 m/S 697 mmHg 90%
    11:00 +25°C° 0.4 mm 3 m/S 696 mmHg 88%
    12:00 +25°C° 0.4 mm 3 m/S 696 mmHg 87%
    13:00 +26°C° 0.4 mm 3 m/S 695 mmHg 86%
    14:00 +26°C° 0.4 mm 3 m/S 695 mmHg 84%
    15:00 +26°C° 0.4 mm 3 m/S 694 mmHg 83%
    16:00 +25°C° 0.2 mm 3 m/S 695 mmHg 85%
    17:00 +25°C° 0.2 mm 2 m/S 695 mmHg 88%
    18:00 +24°C° 0.2 mm 2 m/S 695 mmHg 91%
    19:00 +24°C° 0.3 mm 2 m/S 695 mmHg 92%
    20:00 +24°C° 0.3 mm 2 m/S 695 mmHg 94%
    21:00 +24°C° 0.3 mm 2 m/S 696 mmHg 95%
    22:00 +23°C° 3.6 mm 2 m/S 696 mmHg 96%
    23:00 +23°C° 3.6 mm 2 m/S 695 mmHg 97%

    übermorgen, 4 Juni, Donnerstag

    Zeit Temperatur Niederschläge Wind Luftdruck Luftfeuchtigkeit
    00:00 +23°C° 3.6 mm 2 m/S 695 mmHg 97%
    01:00 +23°C° 4.7 mm 2 m/S 695 mmHg 98%
    02:00 +23°C° 4.7 mm 2 m/S 695 mmHg 98%
    03:00 +23°C° 4.7 mm 2 m/S 694 mmHg 98%
    04:00 +23°C° 3.8 mm 2 m/S 694 mmHg 98%
    05:00 +23°C° 3.8 mm 2 m/S 695 mmHg 98%
    06:00 +23°C° 3.8 mm 1 m/S 695 mmHg 98%
    07:00 +23°C° 1.9 mm 1 m/S 695 mmHg 97%
    08:00 +23°C° 1.9 mm 1 m/S 695 mmHg 96%
    09:00 +24°C° 1.9 mm 1 m/S 696 mmHg 96%
    10:00 +24°C° 4 mm 2 m/S 696 mmHg 96%
    11:00 +24°C° 4 mm 2 m/S 695 mmHg 96%
    12:00 +24°C° 4 mm 2 m/S 695 mmHg 96%
    13:00 +24°C° 0.6 mm 3 m/S 695 mmHg 94%
    14:00 +25°C° 0.6 mm 3 m/S 694 mmHg 92%
    15:00 +25°C° 0.6 mm 3 m/S 694 mmHg 90%
    16:00 +25°C° 0 mm 3 m/S 694 mmHg 91%
    17:00 +24°C° 0 mm 3 m/S 694 mmHg 92%
    18:00 +24°C° 0 mm 3 m/S 694 mmHg 93%
    19:00 +24°C° 0 mm 3 m/S 695 mmHg 94%
    20:00 +22°C° 0 mm 3 m/S 695 mmHg 94%
    21:00 +22°C° 0 mm 3 m/S 696 mmHg 95%
    22:00 +23°C° 0 mm 2 m/S 696 mmHg 95%
    23:00 +23°C° 0 mm 2 m/S 695 mmHg 95%

    5 Juni, Freitag

    Zeit Temperatur Niederschläge Wind Luftdruck Luftfeuchtigkeit
    00:00 +23°C° 0 mm 2 m/S 695 mmHg 95%
    01:00 +23°C° 0.1 mm 2 m/S 695 mmHg 95%
    02:00 +23°C° 0.1 mm 2 m/S 695 mmHg 95%
    03:00 +23°C° 0.1 mm 2 m/S 695 mmHg 95%
    04:00 +23°C° 0.1 mm 2 m/S 695 mmHg 95%
    05:00 +23°C° 0.1 mm 2 m/S 696 mmHg 95%
    06:00 +23°C° 0.1 mm 2 m/S 696 mmHg 95%
    07:00 +24°C° 0.1 mm 3 m/S 696 mmHg 92%
    08:00 +25°C° 0.1 mm 3 m/S 697 mmHg 89%
    09:00 +25°C° 0.1 mm 3 m/S 697 mmHg 87%
    10:00 +26°C° 0.1 mm 3 m/S 697 mmHg 84%
    11:00 +26°C° 0.1 mm 3 m/S 697 mmHg 82%
    12:00 +27°C° 0.1 mm 4 m/S 696 mmHg 80%
    13:00 +26°C° 0.2 mm 4 m/S 696 mmHg 82%
    14:00 +26°C° 0.2 mm 3 m/S 696 mmHg 84%
    15:00 +26°C° 0.2 mm 3 m/S 695 mmHg 85%
    16:00 +25°C° 0.3 mm 3 m/S 695 mmHg 88%
    17:00 +25°C° 0.3 mm 3 m/S 695 mmHg 90%
    18:00 +24°C° 0.3 mm 2 m/S 696 mmHg 93%
    19:00 +24°C° 0.1 mm 2 m/S 696 mmHg 94%
    20:00 +24°C° 0.1 mm 2 m/S 697 mmHg 94%
    21:00 +24°C° 0.1 mm 2 m/S 697 mmHg 95%
    22:00 +24°C° 0.1 mm 2 m/S 697 mmHg 95%
    23:00 +24°C° 0.1 mm 2 m/S 697 mmHg 95%

    6 Juni, Samstag

    Zeit Temperatur Niederschläge Wind Luftdruck Luftfeuchtigkeit
    00:00 +24°C° 0.1 mm 2 m/S 697 mmHg 96%
    01:00 +23°C° 0 mm 2 m/S 697 mmHg 96%
    02:00 +23°C° 0 mm 2 m/S 696 mmHg 96%
    03:00 +23°C° 0 mm 2 m/S 696 mmHg 95%
    04:00 +23°C° 0 mm 2 m/S 696 mmHg 95%
    05:00 +23°C° 0 mm 2 m/S 696 mmHg 95%
    06:00 +23°C° 0 mm 2 m/S 697 mmHg 95%
    07:00 +25°C° 0.1 mm 2 m/S 697 mmHg 90%
    08:00 +26°C° 0.1 mm 2 m/S 698 mmHg 84%
    09:00 +27°C° 0.1 mm 2 m/S 698 mmHg 79%
    10:00 +28°C° 0.1 mm 3 m/S 698 mmHg 75%
    11:00 +29°C° 0.1 mm 3 m/S 698 mmHg 70%
    12:00 +30°C° 0.1 mm 4 m/S 698 mmHg 66%
    13:00 +30°C° 0.7 mm 4 m/S 697 mmHg 70%
    14:00 +29°C° 0.7 mm 4 m/S 697 mmHg 74%
    15:00 +28°C° 0.7 mm 3 m/S 696 mmHg 78%
    16:00 +27°C° 0.3 mm 3 m/S 696 mmHg 82%
    17:00 +26°C° 0.3 mm 3 m/S 697 mmHg 87%
    18:00 +25°C° 0.3 mm 2 m/S 697 mmHg 91%
    19:00 +25°C° 0.3 mm 2 m/S 697 mmHg 93%
    20:00 +24°C° 0.3 mm 2 m/S 697 mmHg 95%
    21:00 +24°C° 0.3 mm 1 m/S 698 mmHg 96%
    22:00 +24°C° 0.1 mm 1 m/S 698 mmHg 96%
    23:00 +24°C° 0.1 mm 2 m/S 698 mmHg 96%

    7 Juni, Sonntag

    Zeit Temperatur Niederschläge Wind Luftdruck Luftfeuchtigkeit
    00:00 +24°C° 0.1 mm 2 m/S 698 mmHg 96%
    01:00 +24°C° 0 mm 2 m/S 697 mmHg 96%
    02:00 +23°C° 0 mm 2 m/S 697 mmHg 96%
    03:00 +23°C° 0 mm 1 m/S 697 mmHg 96%
    04:00 +23°C° 0 mm 1 m/S 697 mmHg 96%
    05:00 +23°C° 0 mm 2 m/S 697 mmHg 96%
    06:00 +23°C° 0 mm 2 m/S 697 mmHg 96%
    07:00 +24°C° 0 mm 2 m/S 697 mmHg 95%
    08:00 +24°C° 0 mm 2 m/S 698 mmHg 94%
    09:00 +25°C° 0 mm 2 m/S 698 mmHg 93%
    10:00 +26°C° 0.1 mm 2 m/S 698 mmHg 88%
    11:00 +26°C° 0.1 mm 2 m/S 698 mmHg 84%
    12:00 +27°C° 0.1 mm 2 m/S 698 mmHg 79%
    13:00 +27°C° 0.1 mm 2 m/S 698 mmHg 79%
    14:00 +27°C° 0.1 mm 2 m/S 697 mmHg 79%
    15:00 +27°C° 0.1 mm 3 m/S 697 mmHg 78%
    16:00 +26°C° 0 mm 2 m/S 697 mmHg 81%
    17:00 +25°C° 0 mm 2 m/S 697 mmHg 85%
    18:00 +24°C° 0 mm 2 m/S 697 mmHg 88%
    19:00 +24°C° 0 mm 2 m/S 697 mmHg 90%
    20:00 +23°C° 0 mm 1 m/S 698 mmHg 91%
    21:00 +23°C° 0 mm 1 m/S 698 mmHg 93%
    22:00 +23°C° 0 mm 1 m/S 698 mmHg 93%
    23:00 +23°C° 0 mm 1 m/S 698 mmHg 92%
    Mehr zeigen